全球星 M029星 (GLOBALSTAR M029)

导读

GLOBALSTAR M029是美国主导的全球星(Globalstar)系统卫星,于1999年11月22日发射,属于第一代全球星低轨通信卫星。该星基于劳拉公司LS-400平台建造,运行在高度约1414千米的倾斜轨道,配备多波束天线与透明转发器,可提供语音、数据等移动通信服务,为全球偏远地区、海洋等场景补充通信覆盖,助力全球星系统完成第一代48颗卫星的组网布局。

基本信息
目录编号:
25963
目录名称:
GLOBALSTAR M029
国际标识:
1999-062C
轨道中心:
EARTH
卫星名称:
全球星 M029星
卫星全名:
全球星 M029星 (GLOBALSTAR M029)
卫星状态:
在轨 (已飞行9699 天)
发射日期:
1999-11-22 UTC
国别 :
(GLOB)
星等 :
--
轨道信息
数据来源 国际轨道数据 AOE轨道数据
星历时间 2026-06-12T15:16:29+0800
12小时前
查看轨道信息
2026-06-12T07:00:00+0800
21小时前
查看轨道信息
半长轴 8059.395km 8059.394km
偏心率 0.0002401 0.0002413
轨道倾角 51.977° 51.977°
近地点辐角 110.298° 109.243°
升交点赤经 200.654° 201.588°
平近点角 332.138° 283.180°
近地点 1679.322km 1679.312km
远地点 1683.194km 1683.202km
周期 120.009分钟 120.009分钟
每日圈数 11.999113 11.999116
详细信息
固有亮度:
5
最大亮度:
7.9
平衡模式:
三轴稳定
覆盖范围:
全球
运营商:
全球星公司
运营商所在国:
美国
使用方式:
暂无
卫星简介
全球星星座由48颗卫星加8颗备份星组成。这些卫星分布在8个倾角为52度的圆形轨道平面上,每个轨道平面6颗卫星,另有1 颗备用星。轨道高度约为1414km,传输时延和处理时延小于300ms,整个系统的覆盖区为南北纬70度以内的地区。该卫星已退役。
2D轨道图
3D轨道图
轨道高度分析图
轨道倾角分析图
轨道综合分析图
查看轨道综合分析图